825  
ASUS41 KPHI 092014  
RWRPHI  
 
REGIONAL WEATHER ROUNDUP  
NATIONAL WEATHER SERVICE MOUNT HOLLY NJ  
400 PM EDT TUE AUG 09 2022  
 
NOTE: "FAIR" INDICATES FEW OR NO CLOUDS BELOW 12,000 FEET WITH NO  
SIGNIFICANT WEATHER AND/OR S TO VISIBILITY
.  
 
* = STATION DOES NOT REPORT PRECIPITATION (E.G. RAIN, SNOW, ETC.)  
OR FOG.
 
 
NJZ015>026-092100-  
SOUTHERN NEW JERSEY  
 
CITY SKY/WX TMP DP RH WIND PRES REMARKS
 
POMONA SUNNY 96 71 44 W14G23 29.91F HX 103  
WILDWOOD* SUNNY 97 76 50 SW9 29.95F HX 110  
MILLVILLE MOSUNNY 96 73 47 W12G23 29.93F HX 105  
WRIGHTSTOWN SUNNY 96 74 49 SW16 29.89F HX 106  
MOUNT HOLLY MOSUNNY 99 71 40 W10 29.89F HX 107  
TRENTON NOT AVBL  
 

 
NJZ001>014-092100-  
NORTHERN NEW JERSEY  
 
CITY SKY/WX TMP DP RH WIND PRES REMARKS
 
ANDOVER* N/A 93 73 52 VRB7 29.92F HX 102  
MORRISTOWN MOSUNNY 97 70 41 W12G21 29.89F HX 103  
NEWARK MOSUNNY 100 68 35 W14 29.86F HX 105  
TETERBORO MOSUNNY 97 71 42 NW13 29.85F HX 104  
CALDWELL PTSUNNY 97 68 38 NW10G21 29.88S HX 102  
SOMERVILLE MOSUNNY 98 70 40 VRB5 29.87F HX 105  
ALLAIRE* PTSUNNY 99 74 44 W13G18 29.90F HX 110  
 

 
PAZ043-044-047-054-055-060>062-066>071-092100-  
EASTERN PENNSYLVANIA  
 
CITY SKY/WX TMP DP RH WIND PRES REMARKS
 
PHILADELPHIA MOSUNNY 97 72 44 W16 29.91F HX 105  
NORTH PHILA MOSUNNY 99 71 40 W9G17 29.91F HX 107  
BLUE BELL* PTSUNNY 94 73 51 W5 29.93F HX 103  
DOYLESTOWN MOSUNNY 96 70 42 W10G18 29.91F HX 102  
QUAKERTOWN* PTSUNNY 91 73 55 N9G15 29.94R HX 100  
PERKASIE* FAIR 91 72 52 W9G16 29.94S HX 98  
POTTSTOWN MOSUNNY 91 72 53 VRB7 29.94F HX 98  
LANCASTER TSTM 81 72 74 W20G31 29.96R  
COATESVILLE MOSUNNY 91 75 59 VRB6 29.96 HX 102  
WEST CHESTER FAIR 93 72 49 SW8 29.94F HX 100  
READING MOSUNNY 89 72 56 VRB5 29.90F HX 96  
ALLENTOWN MOSUNNY 89 74 60 W5 29.92F HX 98  
QN CITY/ALNTWN N/A 90 73 58 NW5 29.94S HX 98  
MOUNT POCONO PTSUNNY 79 71 76 W13 30.02S  
HAZLETON MOSUNNY 86 70 58 NW6 30.04S HX 90  
LEHIGHTON MOCLDY 88 70 55 W7 29.94S HX 92  
WILKES BARRE PTSUNNY 88 73 61 VRB3 29.96F HX 95  
 

 
DEZALL-MDZ008-012-015-019-020-092100-  
DELAWARE AND EASTERN MARYLAND  
 
CITY SKY/WX TMP DP RH WIND PRES REMARKS
 
WILMINGTON MOSUNNY 96 75 50 W10 29.93F HX 108  
DOVER MOSUNNY 94 73 49 SW13 29.93F HX 102  
CHESWOLD PTCLDY 95 75 52 W13 29.93F HX 107  
GEORGETOWN SUNNY 95 71 45 SW12G21 29.95F HX 102  
EASTON SUNNY 100 81 53 SW7 30.00F HX 122  
ABERDEEN SUNNY 93 76 58 SW15 29.93F HX 106  
PATUXENT MOSUNNY 93 74 53 SW8 29.96F HX 103  
OCEAN CITY SUNNY 85 75 72 S6 29.97F HX 93  
WALLOPS ISLAND SUNNY 95 72 47 VRB7 29.98F HX 103  
SALISBURY SUNNY 93 74 53 SW10 29.96F HX 103  
 

 
PAZ001-021-NYZ056-072-MDZ011-DCZ001-092100-  
OTHER NEARBY LOCATIONS  
 
CITY SKY/WX TMP DP RH WIND PRES REMARKS
 
HARRISBURG PTSUNNY 84 69 60 VRB5 29.93S  
STATE COLLEGE PTSUNNY 81 70 69 NW7 30.02S  
WILLIAMSPORT PTSUNNY 88 69 53 W10 29.94S HX 92  
BINGHAMTON MOSUNNY 74 62 66 N14 30.02F  
NEW YORK CITY PTSUNNY 95 69 42 W8 29.89F HX 100  
BALTIMORE MOSUNNY 97 71 42 SW9 29.93F HX 104  
WASHINGTON DC PTSUNNY 94 73 50 S13G23 29.95F HX 103  
 

 
 
 
CLICK HERE TO GO TO PREVIOUS BULLETINS.

The Nexlab PA Page
The Nexlab NJ Page
The Nexlab DE Page
The Nexlab MD Page Main Text Page